User: anonymous   Login
Location: Unspecified
(0.0000°N, 0.0000°E)
Time: 16:55:14
(UTC+00:00)
Language:

RISAT 1 - Orbit

View from above orbital plane
View from above orbital plane
View from above satellite
View from above satellite

Ground track
Ground track

The orbit data is extracted from the following two-line orbital elements,

1 38248U 12017A   15182.05375788  .00000341  00000-0  25567-4 0  9993
2 38248 097.5602 188.7742 0004217 003.3815 074.2961 15.08946129175093
Epoch (UTC): 01 July 2015 01:17:24
Eccentricity: 0.0004217
inclination: 97.5602°
perigee height: 536 km
apogee height: 542 km
right ascension of ascending node: 188.7742°
argument of perigee: 3.3815°
revolutions per day: 15.08946129
mean anomaly at epoch: 74.2961°
orbit number at epoch: 17509

The dashed part of the orbit path shows where the satellite is in the earth's shadow,  

DLR